{"data":{"norad_id":58513,"intl_designator":"2023-191F","name":"STARLINK-30998","alt_names":[],"object_type":"PAYLOAD","status":"ACTIVE","operator":null,"country":"US","launch_date":"2023-12-07","launch_site_code":"AFETR","launch_vehicle":null,"mission":null,"orbit_class":"UNKNOWN","rcs_meters":null,"size_class":null,"mass_kg":null,"dimensions":null,"purposes":["comms"],"wikipedia_slug":null,"has_3d_model":false,"image_url":null,"decayed_at":null,"tle_current":{"epoch":"2026-05-25T00:59:19.837248Z","epoch_age_seconds":81967,"freshness":"FRESH","line1":"1 58513U 23191F   26145.04120182  .00000814  00000+0  39086-4 0  9996","line2":"2 58513  43.0044  32.6479 0001020 251.9298 108.1443 15.27584158137175","mean_motion":15.27584158,"eccentricity":0.000102,"inclination_deg":43.0044,"raan_deg":32.6479,"arg_perigee_deg":251.9298,"mean_anomaly_deg":108.1443,"bstar":3.9086e-5,"rev_number":13717,"period_min":94.26649212475,"perigee_km":482.33680580822,"apogee_km":483.73648523191,"semimajor_km":6861.1736455201,"source":"CELESTRAK","updated_at":"2026-05-25T13:38:18.656212Z"}}}